Estación de YUNGAY INIA
Ultimos registro cada 15 minutos 61
| N° | Estación | Fecha / Hora | Temperatura | Humedad | Lluvia | Velocidad | Dirección | Radiación | Presion |
| 61 | YUNGAY INIA | 10-05-2026 15:00 | 19,1 | 56,1 | 0 | 2,2 | 156 | 354 | 983 |
| 60 | YUNGAY INIA | 10-05-2026 14:45 | 19 | 55,7 | 0 | 2,4 | 159 | 381 | 983 |
| 59 | YUNGAY INIA | 10-05-2026 14:30 | 19 | 54,3 | 0 | 4 | 165 | 406 | 984 |
| 58 | YUNGAY INIA | 10-05-2026 14:15 | 19 | 53,7 | 0 | 3,5 | 160 | 427 | 984 |
| 57 | YUNGAY INIA | 10-05-2026 14:00 | 18,8 | 52,9 | 0 | 3,9 | 160 | 446 | 984 |
| 56 | YUNGAY INIA | 10-05-2026 13:45 | 18,8 | 55,3 | 0 | 3,3 | 162 | 461 | 984 |
| 55 | YUNGAY INIA | 10-05-2026 13:30 | 18,4 | 52,8 | 0 | 1 | 157 | 474 | 984 |
| 54 | YUNGAY INIA | 10-05-2026 13:15 | 17,5 | 54 | 0 | 4,2 | 151 | 484 | 984 |
| 53 | YUNGAY INIA | 10-05-2026 13:00 | 16,8 | 55,6 | 0 | 2,9 | 143 | 491 | 985 |
| 52 | YUNGAY INIA | 10-05-2026 12:45 | 16,1 | 52,9 | 0 | 4,1 | 144 | 495 | 985 |
| 51 | YUNGAY INIA | 10-05-2026 12:30 | 15,3 | 56,2 | 0 | 4,2 | 146 | 494 | 985 |
| 50 | YUNGAY INIA | 10-05-2026 12:15 | 14,7 | 61,1 | 0 | 3,3 | 154 | 492 | 985 |
| 49 | YUNGAY INIA | 10-05-2026 12:00 | 14,4 | 58,6 | 0 | 1,8 | 149 | 486 | 985 |
| 48 | YUNGAY INIA | 10-05-2026 11:45 | 14 | 61,3 | 0 | 0 | 0 | 477 | 985 |
| 47 | YUNGAY INIA | 10-05-2026 11:30 | 13,3 | 59,6 | 0 | 0 | 0 | 466 | 985 |
| 46 | YUNGAY INIA | 10-05-2026 11:15 | 12,5 | 62,1 | 0 | 0 | 0 | 450 | 985 |
| 45 | YUNGAY INIA | 10-05-2026 11:00 | 11,8 | 65,1 | 0 | 0,3 | 151 | 432 | 985 |
| 44 | YUNGAY INIA | 10-05-2026 10:45 | 11,3 | 64,1 | 0 | 0,9 | 145 | 411 | 985 |
| 43 | YUNGAY INIA | 10-05-2026 10:30 | 10,8 | 62,9 | 0 | 0,9 | 141 | 388 | 985 |
| 42 | YUNGAY INIA | 10-05-2026 10:15 | 10,2 | 67,6 | 0 | 0,3 | 149 | 362 | 985 |
| 41 | YUNGAY INIA | 10-05-2026 10:00 | 9,5 | 66,8 | 0 | 0,9 | 145 | 333 | 985 |
| 40 | YUNGAY INIA | 10-05-2026 09:45 | 8,8 | 71,4 | 0 | 0,8 | 143 | 301 | 985 |
| 39 | YUNGAY INIA | 10-05-2026 09:30 | 8,2 | 72,2 | 0 | 1,8 | 150 | 268 | 985 |
| 38 | YUNGAY INIA | 10-05-2026 09:15 | 7,6 | 73,3 | 0 | 0,7 | 145 | 234 | 986 |
| 37 | YUNGAY INIA | 10-05-2026 09:00 | 7 | 74,3 | 0 | 0,8 | 143 | 197 | 985 |
| 36 | YUNGAY INIA | 10-05-2026 08:45 | 6,6 | 76,5 | 0 | 3 | 152 | 160 | 985 |
| 35 | YUNGAY INIA | 10-05-2026 08:30 | 6 | 77,4 | 0 | 3,8 | 153 | 122 | 985 |
| 34 | YUNGAY INIA | 10-05-2026 08:15 | 5,2 | 79,7 | 0 | 2,7 | 151 | 42 | 986 |
| 33 | YUNGAY INIA | 10-05-2026 08:00 | 4,9 | 81,5 | 0 | 1,8 | 151 | 9 | 986 |
| 32 | YUNGAY INIA | 10-05-2026 07:45 | 4,9 | 81,9 | 0 | 1,5 | 154 | 5 | 986 |
| 31 | YUNGAY INIA | 10-05-2026 07:30 | 5 | 81,1 | 0 | 2,4 | 157 | 1 | 986 |
| 30 | YUNGAY INIA | 10-05-2026 07:15 | 5,2 | 80,1 | 0 | 2,2 | 149 | 0 | 985 |
| 29 | YUNGAY INIA | 10-05-2026 07:00 | 5,1 | 79,7 | 0 | 2,8 | 142 | 0 | 985 |
| 28 | YUNGAY INIA | 10-05-2026 06:45 | 5,1 | 80,6 | 0 | 1,1 | 135 | 0 | 985 |
| 27 | YUNGAY INIA | 10-05-2026 06:30 | 5 | 81,1 | 0 | 0 | 0 | 0 | 985 |
| 26 | YUNGAY INIA | 10-05-2026 06:15 | 4,6 | 82,2 | 0 | 0 | 0 | 0 | 985 |
| 25 | YUNGAY INIA | 10-05-2026 06:00 | 4,2 | 84,3 | 0 | 0 | 0 | 0 | 985 |
| 24 | YUNGAY INIA | 10-05-2026 05:45 | 4,2 | 85,4 | 0 | 0 | 0 | 0 | 985 |
| 23 | YUNGAY INIA | 10-05-2026 05:30 | 4,4 | 84,7 | 0 | 0 | 0 | 0 | 985 |
| 22 | YUNGAY INIA | 10-05-2026 05:15 | 4,7 | 83,4 | 0 | 0 | 0 | 0 | 985 |
| 21 | YUNGAY INIA | 10-05-2026 05:00 | 4,9 | 84,3 | 0 | 0 | 0 | 0 | 985 |
| 20 | YUNGAY INIA | 10-05-2026 04:45 | 5 | 83,7 | 0 | 0 | 0 | 0 | 985 |
| 19 | YUNGAY INIA | 10-05-2026 04:30 | 5,1 | 84,1 | 0 | 0 | 0 | 0 | 986 |
| 18 | YUNGAY INIA | 10-05-2026 04:15 | 5,4 | 83,3 | 0 | 0 | 0 | 0 | 986 |
| 17 | YUNGAY INIA | 10-05-2026 04:00 | 5,5 | 81,7 | 0 | 0 | 0 | 0 | 986 |
| 16 | YUNGAY INIA | 10-05-2026 03:45 | 5,4 | 82,4 | 0 | 0 | 0 | 0 | 986 |
| 15 | YUNGAY INIA | 10-05-2026 03:30 | 5,6 | 83,2 | 0 | 0 | 0 | 0 | 986 |
| 14 | YUNGAY INIA | 10-05-2026 03:15 | 5,8 | 83,3 | 0 | 0,6 | 153 | 0 | 986 |
| 13 | YUNGAY INIA | 10-05-2026 03:00 | 5,9 | 83,2 | 0 | 0,4 | 151 | 0 | 986 |
| 12 | YUNGAY INIA | 10-05-2026 02:45 | 5,9 | 82,2 | 0 | 0 | 0 | 0 | 986 |
| 11 | YUNGAY INIA | 10-05-2026 02:30 | 6 | 82,9 | 0 | 0 | 0 | 0 | 986 |
| 10 | YUNGAY INIA | 10-05-2026 02:15 | 6,1 | 81,8 | 0 | 0 | 0 | 0 | 986 |
| 9 | YUNGAY INIA | 10-05-2026 02:00 | 6,1 | 82,1 | 0 | 0 | 0 | 0 | 986 |
| 8 | YUNGAY INIA | 10-05-2026 01:45 | 6,2 | 81,9 | 0 | 0 | 0 | 0 | 986 |
| 7 | YUNGAY INIA | 10-05-2026 01:30 | 6,2 | 83,4 | 0 | 0 | 0 | 0 | 987 |
| 6 | YUNGAY INIA | 10-05-2026 01:15 | 6,3 | 83,8 | 0 | 0 | 0 | 0 | 987 |
| 5 | YUNGAY INIA | 10-05-2026 01:00 | 6,5 | 82,9 | 0 | 0 | 0 | 0 | 987 |
| 4 | YUNGAY INIA | 10-05-2026 00:45 | 6,6 | 82,8 | 0 | 0 | 0 | 0 | 987 |
| 3 | YUNGAY INIA | 10-05-2026 00:30 | 6,6 | 83 | 0 | 0 | 0 | 0 | 987 |
| 2 | YUNGAY INIA | 10-05-2026 00:15 | 6,7 | 82,5 | 0 | 0 | 0 | 0 | 988 |
| 1 | YUNGAY INIA | 10-05-2026 00:00 | 7 | 81,7 | 0 | 0,2 | 138 | 0 | 987 |